ANIK F2

Last updated on Sun Dec 14 2025 00:02:48 GMT+0000 (Coordinated Universal Time)

1 28378U 04027A 25347.27292448 -.00000036 00000+0 00000+0 0 9998 2 28378 2.8066 81.9853 0000913 175.7469 171.6003 1.00271895 39393
UTC large
Height (km)
Speed (km/s)
/
Latitude / Longitude
Inclination (degrees)
Orbital Period (minutes)
Azimuth
Elevation
Range (km)
Doppler Factor

Next 0 passes for location: London (51.5072 / 0.1276)

Sorry there are no passes over London.